Total_Precipitation_Accumulation
0.04 0.04 0.04 0.04 0.04 0.05 0.05 0.05 0.08 0.10 0.12 0.15 0.17 0.17 0.16 0.15 0.15 0.16 0.16 0.17 0.18 0.18 0.19 0.21 0.23 0.23 0.25 0.27 0.31 0.36 0.41 0.46 0.51 0.46 0.41 0.42 0.43 0.40 0.39 0.35 0.31 0.30 0.28
0.04 0.05 0.05 0.05 0.05 0.05 0.05 0.06 0.08 0.10 0.11 0.12 0.12 0.11 0.10 0.09 0.10 0.11 0.13 0.13 0.14 0.15 0.17 0.19 0.21 0.23 0.26 0.28 0.31 0.34 0.37 0.38 0.41 0.40 0.36 0.33 0.32 0.29 0.25 0.21 0.17 0.15 0.13
0.05 0.06 0.06 0.06 0.07 0.07 0.08 0.08 0.09 0.09 0.09 0.08 0.07 0.07 0.07 0.07 0.09 0.10 0.11 0.11 0.13 0.15 0.17 0.19 0.21 0.23 0.27 0.28 0.29 0.31 0.32 0.31 0.31 0.31 0.27 0.23 0.20 0.18 0.15 0.12 0.09 0.07 0.06
0.07 0.09 0.10 0.11 0.11 0.11 0.11 0.11 0.10 0.09 0.08 0.07 0.06 0.06 0.07 0.07 0.09 0.10 0.11 0.12 0.15 0.16 0.19 0.21 0.24 0.26 0.27 0.28 0.29 0.30 0.28 0.25 0.23 0.23 0.23 0.21 0.18 0.13 0.10 0.07 0.05 0.04 0.03
0.13 0.13 0.14 0.14 0.14 0.14 0.13 0.11 0.09 0.08 0.07 0.07 0.07 0.08 0.09 0.10 0.12 0.13 0.15 0.18 0.22 0.25 0.27 0.29 0.30 0.32 0.31 0.28 0.25 0.22 0.19 0.18 0.21 0.26 0.26 0.19 0.12 0.08 0.06 0.04 0.04 0.03 0.02
0.16 0.15 0.15 0.15 0.14 0.13 0.11 0.10 0.09 0.09 0.10 0.12 0.13 0.16 0.19 0.22 0.30 0.27 0.23 0.23 0.27 0.29 0.30 0.30 0.29 0.28 0.25 0.23 0.20 0.18 0.19 0.23 0.30 0.32 0.23 0.12 0.06 0.04 0.04 0.05 0.07 0.09 0.06
0.17 0.15 0.15 0.15 0.16 0.15 0.13 0.15 0.20 0.23 0.25 0.28 0.30 0.32 0.35 0.42 0.46 0.40 0.36 0.31 0.31 0.31 0.29 0.26 0.23 0.20 0.18 0.14 0.12 0.13 0.15 0.19 0.20 0.14 0.07 0.03 0.03 0.04 0.08 0.13 0.12 0.12 0.08
0.29 0.25 0.21 0.22 0.26 0.31 0.35 0.38 0.44 0.51 0.55 0.57 0.58 0.56 0.53 0.52 0.49 0.42 0.37 0.32 0.30 0.26 0.21 0.16 0.13 0.10 0.08 0.08 0.09 0.14 0.11 0.08 0.04 0.02 0.02 0.02 0.03 0.04 0.08 0.14 0.14 0.10 0.03
0.37 0.39 0.39 0.41 0.48 0.53 0.60 0.65 0.66 0.72 0.72 0.67 0.65 0.60 0.53 0.46 0.37 0.28 0.21 0.17 0.15 0.13 0.10 0.07 0.06 0.05 0.06 0.10 0.15 0.17 0.07 0.01 0.01 0.02 0.03 0.03 0.03 0.02 0.03 0.10 0.15 0.15 0.09
0.49 0.54 0.55 0.57 0.60 0.62 0.63 0.62 0.60 0.60 0.58 0.50 0.45 0.39 0.33 0.28 0.21 0.15 0.11 0.08 0.06 0.05 0.03 0.02 0.02 0.03 0.06 0.12 0.13 0.09 0.02 0.01 0.02 0.01 0.00 0.00 0.00 0.00 0.01 0.07 0.20 0.35 0.26
0.59 0.63 0.64 0.60 0.58 0.54 0.47 0.40 0.36 0.32 0.28 0.25 0.22 0.18 0.15 0.11 0.08 0.06 0.04 0.03 0.02 0.02 0.01 0.01 0.01 0.04 0.10 0.12 0.07 0.02 0.02 0.05 0.03 0.00 0.00 0.00 0.00 0.00 0.00 0.01 0.08 0.35 0.51
0.46 0.42 0.39 0.34 0.29 0.26 0.22 0.18 0.16 0.13 0.11 0.10 0.08 0.06 0.04 0.03 0.02 0.01 0.01 0.02 0.02 0.02 0.01 0.01 0.02 0.07 0.08 0.04 0.01 0.01 0.03 0.03 0.00 0.00 0.00 0.00 0.01 0.01 0.00 0.01 0.02 0.06 0.21
0.15 0.13 0.11 0.10 0.09 0.09 0.08 0.07 0.05 0.04 0.03 0.02 0.01 0.01 0.00 0.00 0.00 0.00 0.00 0.01 0.03 0.03 0.02 0.04 0.05 0.04 0.01 0.00 0.00 0.01 0.01 0.00 0.01 0.03 0.02 0.01 0.01 0.01 0.01 0.02 0.01 0.01 0.02
0.02 0.02 0.02 0.02 0.01 0.01 0.01 0.01 0.00 0.00 0.00 0.00 0.00 0.00 0.00 0.00 0.00 0.00 0.00 0.01 0.02 0.02 0.03 0.03 0.02 0.00 0.00 0.00 0.00 0.00 0.00 0.00 0.04 0.06 0.04 0.02 0.01 0.01 0.02 0.03 0.05 0.05 0.06
0.02 0.02 0.01 0.01 0.01 0.00 0.00 0.00 0.00 0.00 0.00 0.00 0.00 0.00 0.00 0.00 0.00 0.01 0.02 0.02 0.03 0.03 0.03 0.01 0.00 0.00 0.00 0.00 0.00 0.00 0.00 0.01 0.02 0.03 0.05 0.05 0.03 0.02 0.02 0.02 0.07 0.11 0.13
0.02 0.02 0.02 0.02 0.01 0.01 0.01 0.00 0.01 0.00 0.01 0.00 0.00 0.00 0.00 0.00 0.01 0.01 0.02 0.03 0.03 0.03 0.01 0.00 0.00 0.00 0.00 0.00 0.00 0.01 0.01 0.01 0.03 0.05 0.06 0.08 0.09 0.08 0.06 0.03 0.06 0.13 0.15
0.03 0.03 0.03 0.02 0.01 0.01 0.01 0.01 0.01 0.01 0.01 0.01 0.01 0.01 0.00 0.00 0.01 0.01 0.02 0.02 0.01 0.00 0.00 0.00 0.00 0.00 0.00 0.01 0.02 0.03 0.03 0.01 0.03 0.06 0.09 0.12 0.14 0.12 0.09 0.08 0.08 0.11 0.11
0.03 0.03 0.03 0.02 0.02 0.02 0.02 0.02 0.01 0.01 0.01 0.01 0.01 0.01 0.01 0.01 0.01 0.01 0.01 0.00 0.00 0.00 0.00 0.00 0.00 0.01 0.01 0.03 0.03 0.04 0.04 0.03 0.04 0.06 0.09 0.12 0.17 0.18 0.14 0.12 0.12 0.16 0.18
0.04 0.04 0.04 0.04 0.03 0.03 0.03 0.03 0.02 0.02 0.01 0.01 0.01 0.01 0.01 0.01 0.01 0.00 0.00 0.00 0.00 0.00 0.00 0.00 0.00 0.01 0.03 0.04 0.05 0.06 0.06 0.07 0.07 0.11 0.12 0.15 0.19 0.23 0.18 0.12 0.14 0.13 0.17
0.04 0.06 0.06 0.05 0.05 0.05 0.04 0.03 0.03 0.02 0.02 0.02 0.01 0.01 0.01 0.01 0.01 0.00 0.00 0.00 0.00 0.00 0.00 0.01 0.01 0.01 0.04 0.06 0.07 0.07 0.07 0.06 0.08 0.11 0.13 0.15 0.18 0.24 0.24 0.19 0.17 0.19 0.17
0.04 0.06 0.08 0.06 0.04 0.04 0.04 0.04 0.04 0.03 0.03 0.02 0.02 0.02 0.02 0.01 0.01 0.00 0.00 0.00 0.00 0.00 0.01 0.01 0.02 0.03 0.06 0.07 0.07 0.06 0.06 0.07 0.10 0.15 0.17 0.16 0.19 0.20 0.19 0.20 0.21 0.23 0.25
0.04 0.05 0.06 0.06 0.06 0.06 0.06 0.06 0.05 0.04 0.03 0.02 0.02 0.02 0.03 0.02 0.01 0.01 0.01 0.01 0.00 0.00 0.01 0.03 0.04 0.05 0.11 0.17 0.19 0.17 0.10 0.07 0.09 0.15 0.16 0.14 0.16 0.20 0.23 0.26 0.26 0.25 0.23
0.05 0.06 0.06 0.06 0.07 0.07 0.08 0.06 0.05 0.04 0.03 0.03 0.03 0.03 0.03 0.02 0.01 0.01 0.01 0.01 0.01 0.01 0.01 0.03 0.06 0.06 0.08 0.15 0.22 0.33 0.35 0.25 0.19 0.23 0.36 0.37 0.33 0.34 0.35 0.32 0.26 0.23 0.18
0.05 0.05 0.06 0.07 0.07 0.08 0.07 0.06 0.06 0.05 0.04 0.04 0.04 0.03 0.03 0.03 0.02 0.02 0.02 0.02 0.01 0.01 0.01 0.04 0.07 0.09 0.09 0.15 0.20 0.25 0.33 0.40 0.56 0.69 0.75 0.76 0.56 0.38 0.32 0.27 0.23 0.21 0.19
0.06 0.06 0.08 0.08 0.09 0.09 0.09 0.08 0.07 0.06 0.05 0.05 0.05 0.04 0.04 0.04 0.03 0.02 0.02 0.01 0.01 0.01 0.01 0.03 0.08 0.12 0.13 0.14 0.18 0.22 0.22 0.35 0.59 0.74 0.68 0.56 0.42 0.31 0.29 0.28 0.23 0.21 0.18
0.08 0.09 0.10 0.10 0.10 0.10 0.09 0.08 0.07 0.07 0.06 0.06 0.05 0.05 0.05 0.04 0.03 0.02 0.02 0.02 0.02 0.01 0.01 0.03 0.06 0.11 0.14 0.14 0.11 0.14 0.24 0.33 0.32 0.30 0.42 0.49 0.41 0.31 0.28 0.32 0.27 0.23 0.20